Flag for U.S.A. Weather past 2 weeks in Unalaska, Alaska, U.S.A.

Now
40 °F

Partly sunny.


Feels Like: 29 °F
Forecast: 39 / 42 °F
Wind: 24 mph from Northwest

Location: Dutch Harbor

Current Time: Oct 21, 2014 at 11:25:07 AM

Latest Report: Oct 21, 2014 at 10:56 AM


Visibility: 10 mi

Pressure: 29.64 "Hg

Humidity: 68%

Dew point: 30 °F

Location of UnalaskaLocation

Historic Weather in Unalaska — Graph

°F

Unalaska temperature yesterday

Maximum temperature yesterday: 41 °F (at 4:56 PM)
Minimum temperature yesterday: 37 °F (at 7:56 AM)
Average temperature yesterday: 39 °F

Past Weeks' High & Low Weather Summary

 TemperatureHumidityPressure
High50 °F (Oct 7, 5:56 AM)94% (Oct 8, 4:02 AM)30.32 "Hg (Oct 8, 4:02 AM)
Low35 °F (Oct 19, 5:56 AM)55% (Oct 19, 3:56 PM)28.87 "Hg (Oct 9, 6:56 AM)
Average42 °F75%29.64 "Hg
* Reported Oct 6 8:56 AM — Oct 21 8:56 AM, Unalaska, Weather by CustomWeather, © 2014

Note: Actual official high and low records may vary slightly from our data, if they occured in-between our weather recording intervals... More about our weather records

Advertising

Unalaska weather history for previous 24 hours

 ConditionsComfort  
Time TempWeatherWind HumidityBarometerVisibility
8:56 AM
Oct 21
39 °FLight rain. Overcast.26 mph70%29.63 "Hg10 mi
7:56 AM41 °FLight snow. Mostly cloudy.32 mph65%29.61 "Hg9 mi
6:56 AM40 °FLight snow. Mostly cloudy.24 mph70%29.60 "Hg9 mi
5:56 AM39 °FLight rain. Mostly cloudy.29 mph76%29.61 "Hg5 mi
4:56 AM41 °FOvercast.16 mph65%29.60 "Hg10 mi
3:56 AM38 °FLight rain. Mostly cloudy.17 mph83%29.59 "Hg6 mi
2:56 AM41 °FLight rain. Overcast.22 mph67%29.56 "Hg10 mi
1:56 AM39 °FLight rain. Mostly cloudy.20 mph76%29.56 "Hg10 mi
12:56 AM41 °FMostly cloudy.25 mph67%29.54 "Hg10 mi
11:04 PM
Oct 20
39 °FLight rain. Partly cloudy.20 mph75%29.49 "Hg10 mi
10:56 PM38 °FLight rain. Passing clouds.15 mph83%29.51 "Hg10 mi
9:56 PM38 °FLight rain. Mostly cloudy.18 mph83%29.49 "Hg4 mi
8:56 PM41 °FPartly sunny.25 mph65%29.47 "Hg10 mi
7:56 PM39 °FLight rain. Partly sunny.12 mph73%29.46 "Hg10 mi
6:56 PM38 °FLight snow. Cloudy.16 mph76%29.44 "Hg10 mi
5:56 PM40 °FMostly cloudy.22 mph65%29.44 "Hg10 mi
4:56 PM41 °FBroken clouds.25 mph65%29.43 "Hg10 mi
3:56 PM38 °FPartly sunny.18 mph73%29.43 "Hg10 mi
2:56 PM40 °FMostly cloudy.29 mph65%29.43 "Hg10 mi
1:56 PM40 °FPartly sunny.24 mph70%29.42 "Hg10 mi
12:56 PM40 °FBroken clouds.18 mph65%29.43 "Hg9 mi
11:56 AM38 °FLight snow. Partly sunny.20 mph73%29.44 "Hg10 mi
Weather by CustomWeather, © 2014

See weather overviewHow to use our weather pages